Regional Weather Roundup
Issued by NWS Green Bay, WI

Home | Current Version | Previous Version | Graphics & Text | Print | Product List | Glossary Off
Versions: 1 2 3 4 5 6 7 8 9 10 11 12 13 14 15 16 17 18 19 20 21 22 23 24 25 26 27 28 29 30 31 32 33 34 35 36 37 38 39 40 41 42 43 44 45 46 47 48 49 50

000
ASUS43 KGRB 251211
RWRGRB

NORTH-CENTRAL AND NORTHEAST WISCONSIN REGIONAL WEATHER ROUNDUP
NATIONAL WEATHER SERVICE GREEN BAY WI
600 AM CST SAT FEB 25 2017

WIZ005-009-010>012-018-019-251300-
NORTH CENTRAL WISCONSIN

CITY           SKY/WX    TMP DP  RH WIND       PRES   REMARKS
IRONWOOD       LGT SNOW  15  12  88 NW16G24   29.68R FOG     WCI  -1
MANITOWISH WTR LGT SNOW  13  10  88 NW14      29.63R WCI  -3
ARBOR VITAE    LGT SNOW  16  11  82 NW14G21     N/A  WCI   1
EAGLE RIVER    LGT SNOW  14   9  80 NW14      29.59R WCI   0
LAND O LAKES   LGT SNOW  14  10  84 NW12G20   29.59S WCI   1
RHINELANDER    MIX PCPN  15   8  73 NW15G28   29.61R WCI   0
PHILLIPS       FLURRIES  11   6  81 NW7       29.68S WCI   0
ANTIGO         LGT SNOW  15  10  83 NW16G24   29.60R WCI  -1
TOMAHAWK       LGT SNOW  13   8  81 NW9G16    29.66R WCI   0
MERRILL        NOT AVBL
$$

WIZ013-073-251300-
NORTHEAST WISCONSIN

CITY           SKY/WX    TMP DP  RH WIND       PRES   REMARKS
IRON MOUNTAIN  LGT SNOW  17  11  77 NW14      29.54R WCI   3
MARINETTE      LGT SNOW  19  16  88 NW10      29.59R FOG     WCI   7
OCONTO         CLOUDY    19  15  86 NW9       29.61R WCI   7
$$

WIZ017-030-035>037-045-251300-
CENTRAL WISCONSIN

CITY           SKY/WX    TMP DP  RH WIND       PRES   REMARKS
MEDFORD        LGT SNOW  11   4  73 NW21G30   29.68R WCI  -7
WAUSAU         CLOUDY    15   8  73 NW13      29.66R WCI   1
MOSINEE        LGT SNOW  16  12  86 NW18      29.68R WCI  -1
MARSHFIELD     LGT SNOW  13   5  70 NW22G30   29.69R WCI  -6
WISC RAPIDS    CLOUDY    16   7  67 NW18G26   29.73R WCI   0
STEVENS POINT  LGT SNOW  14  10  85 W7        29.69R WCI   4
WAUPACA        LGT SNOW  19  15  82 W12       29.68R WCI   7
SHAWANO        LGT SNOW  20  15  81 CALM      29.65R
CLINTONVILLE   LGT SNOW  19  14  79 NW9       29.66R WCI   9
WAUTOMA        LGT SNOW  16  13  88 W14       29.71R FOG     WCI   2
$$

WIZ038-039-048-051-251300-
FOX VALLEY

CITY           SKY/WX    TMP DP  RH WIND       PRES   REMARKS
NWS GREEN BAY  LGT SNOW  20  17  88 NW17      29.63R FOG     WCI   5
APPLETON       LGT SNOW  18  14  86 NW12G17   29.63R WCI   5
OSHKOSH        LGT SNOW  19  15  84 W16       29.66R FOG     WCI   4
FOND DU LAC    LGT SNOW  19  13  77 NW17G26   29.67R WCI   4
$$

WIZ022-050-052-251300-
EAST CENTRAL WISCONSIN

CITY           SKY/WX    TMP DP  RH WIND       PRES   REMARKS
EPHRAIM        LGT SNOW  19  18  95 NW6       29.53R
WASHINGTON ISL LGT SNOW  21  18  88 NW8       29.52R VSB 3/4
STURGEON BAY   LGT SNOW  19  17  92 NW15      29.58R FOG     WCI   5
MANITOWOC      LGT SNOW  20  17  88 NW17G25   29.61R FOG     WCI   5
SHEBOYGAN      LGT SNOW  20  15  81 NW17G26   29.62R WCI   5
$$

LMZ563-521-522-541>543-251300-
LAKESHORE

STATION/POSITION TIME  TEMP    WIND        PRES    VSBY  WAVE
                       AIR SEA DIR/SP/G                  HT/PER
                 (UTC) (F)     (DEG/KT/KT) (MB)    (MI)  (FT/S)
SHEBOYGAN LKSHOR 1200   21     300/  7/  8 1003.8R
KEWAUNEE LKSHORE 1148   20     310/ 14/ 21 1001.5R
NORTHPORT PIER   1140   22     310/  2/  3 1000.0R
SISTER BAY LKSHO 1135   20        CALM       N/A
MENOMINEE LKSHOR 1148   19     280/ 12/ 17 1001.1R
$$




USA.gov is the U.S. government's official web portal to all federal, state and local government web resources and services.